GW3840 Weather Reports


time (UTC)temp
C
wind
direction
speed
KPH
gust
KPH
rain 1hr
cm
rain 24hr
cm
rain mn
cm
humidity
%
barometer
mb
20260510061904 6 213 0.0 0.0 0.00 0.00 0.00 81 1017.5
20260510061401 6 221 1.6 1.6 0.00 0.00 0.00 81 1017.6
20260510060856 6 214 1.6 3.2 0.00 0.00 0.00 80 1017.4
20260510060354 5 232 1.6 1.6 0.00 0.00 0.00 79 1017.6
20260510055849 5 226 1.6 1.6 0.00 0.00 0.00 78 1017.6
20260510055349 4 183 0.0 0.0 0.00 0.00 0.00 78 1017.6
20260510054843 4 165 0.0 0.0 0.00 0.00 0.00 77 1017.8
20260510054338 4 165 0.0 0.0 0.00 0.00 0.00 76 1017.6
20260510053833 3 165 0.0 0.0 0.00 0.00 0.00 74 1017.6
20260510053329 4 165 0.0 0.0 0.00 0.00 0.00 73 1017.4
20260510052826 3 165 0.0 0.0 0.00 0.00 0.00 73 1017.5
20260510052321 3 165 0.0 0.0 0.00 0.00 0.00 74 1017.4
20260510051818 4 164 0.0 0.0 0.00 0.00 0.00 73 1017.4
20260510051315 4 164 0.0 0.0 0.00 0.00 0.00 73 1017.1
20260510050812 4 168 0.0 0.0 0.00 0.00 0.00 72 1017.4
20260510050308 4 167 0.0 0.0 0.00 0.00 0.00 71 1017.4
20260510045806 5 167 0.0 0.0 0.00 0.23 0.23 71 1017.1
20260510045305 5 161 0.0 0.0 0.00 0.23 0.23 70 1017.4
20260510044759 5 161 0.0 0.0 0.00 0.23 0.23 71 1016.9
20260510044256 5 165 0.0 0.0 0.00 0.23 0.23 69 1017.1
20260510043752 5 165 0.0 0.0 0.00 0.23 0.23 69 1017.1
20260510043243 6 184 0.0 0.0 0.00 0.23 0.23 67 1017.2
20260510042740 6 184 0.0 0.0 0.00 0.23 0.23 66 1017.2
20260510042236 6 184 0.0 0.0 0.00 0.23 0.23 63 1017.1
20260510041733 6 180 0.0 0.0 0.00 0.23 0.23 63 1017.0
20260510041230 6 195 0.0 0.0 0.00 0.23 0.23 62 1016.9
20260510040727 7 195 0.0 0.0 0.00 0.23 0.23 61 1017.1
20260510040224 7 195 0.0 0.0 0.00 0.23 0.23 65 1017.0
20260510035719 7 195 0.0 0.0 0.00 0.23 0.23 64 1017.1
20260510035216 7 222 0.0 0.0 0.00 0.23 0.23 63 1017.1
20260510034711 7 224 0.0 0.0 0.00 0.23 0.23 64 1016.9
20260510034209 7 224 0.0 0.0 0.00 0.23 0.23 61 1017.0
20260510033704 7 224 0.0 0.0 0.00 0.23 0.23 61 1017.0
20260510033203 7 224 0.0 0.0 0.00 0.23 0.23 59 1016.8
20260510032658 7 224 0.0 0.0 0.00 0.23 0.23 59 1016.8
20260510032154 7 224 0.0 0.0 0.00 0.23 0.23 57 1016.8
20260510031649 7 225 0.0 0.0 0.00 0.23 0.23 56 1017.0
20260510031146 7 225 0.0 0.0 0.00 0.23 0.23 56 1016.8
20260510030640 7 224 0.0 0.0 0.00 0.23 0.23 56 1016.7
20260510030138 7 225 0.0 0.0 0.00 0.23 0.23 55 1016.8
20260510025635 8 224 0.0 0.0 0.00 0.23 0.23 53 1016.6
20260510025132 8 224 0.0 0.0 0.00 0.23 0.23 53 1016.6
20260510024629 8 342 0.0 0.0 0.00 0.23 0.23 50 1016.5
20260510024126 9 234 0.0 1.6 0.00 0.23 0.23 49 1016.5
20260510023621 9 268 1.6 1.6 0.00 0.23 0.23 47 1016.5
20260510023119 9 247 0.0 1.6 0.00 0.23 0.23 48 1016.4
20260510022613 9 299 1.6 1.6 0.00 0.23 0.23 48 1016.4
20260510022108 9 273 0.0 1.6 0.00 0.23 0.23 47 1016.4
20260510021604 10 299 0.0 1.6 0.00 0.23 0.23 47 1016.2
20260510021102 10 22 0.0 1.6 0.00 0.23 0.23 47 1016.2
20260510020556 10 340 1.6 4.8 0.00 0.23 0.23 46 1016.1
20260510020052 10 337 0.0 4.8 0.00 0.23 0.23 45 1016.1
20260510015548 10 309 4.8 6.4 0.00 0.23 0.23 44 1016.1
20260510015044 10 299 1.6 4.8 0.00 0.23 0.23 44 1015.7
20260510014540 10 308 4.8 9.7 0.00 0.23 0.23 43 1015.8
20260510014037 10 317 3.2 6.4 0.00 0.23 0.23 43 1015.8
20260510013531 10 352 6.4 9.7 0.00 0.23 0.23 43 1015.7
20260510013028 10 344 3.2 12.9 0.00 0.23 0.23 42 1015.7
20260510012522 10 5 4.8 11.3 0.00 0.23 0.23 42 1015.4
20260510012019 10 358 6.4 12.9 0.00 0.23 0.23 42 1015.4
20260510011518 10 283 4.8 14.5 0.00 0.23 0.23 41 1015.4
20260510011013 11 291 6.4 12.9 0.00 0.23 0.23 41 1015.3
20260510010511 11 338 6.4 9.7 0.00 0.23 0.23 41 1015.3
20260510010008 11 357 6.4 14.5 0.00 0.23 0.23 40 1015.4
20260510005503 11 358 8.0 12.9 0.00 0.23 0.23 40 1015.2
20260510005001 11 302 6.4 16.1 0.00 0.23 0.23 40 1015.0
20260510004458 11 243 4.8 16.1 0.00 0.23 0.23 39 1015.2
20260510003957 11 338 9.7 16.1 0.00 0.23 0.23 39 1015.1
20260510003453 11 116 3.2 6.4 0.00 0.23 0.23 41 1014.9
20260510002948 11 359 8.0 11.3 0.00 0.23 0.23 39 1015.0
20260510002444 11 21 6.4 11.3 0.00 0.23 0.23 39 1014.9
20260510001942 12 9 6.4 17.7 0.00 0.23 0.23 38 1015.1
20260510001439 12 329 11.3 17.7 0.00 0.23 0.23 38 1015.0
20260510000937 12 19 12.9 17.7 0.00 0.23 0.23 37 1014.7
20260510000433 12 9 8.0 14.5 0.00 0.23 0.23 37 1014.7
20260509235929 12 332 6.4 12.9 0.00 0.23 0.23 40 1014.6
20260509235426 12 314 14.5 24.1 0.00 0.23 0.23 35 1014.7
20260509234921 12 314 14.5 24.1 0.00 0.23 0.23 35 1014.7
20260509234419 12 314 14.5 24.1 0.00 0.23 0.23 35 1014.6
20260509233917 12 349 8.0 11.3 0.00 0.23 0.23 38 1014.4
20260509233415 11 345 9.7 14.5 0.00 0.23 0.23 39 1014.2
20260509232911 12 340 3.2 6.4 0.00 0.23 0.23 39 1014.5
20260509232408 11 332 8.0 12.9 0.00 0.23 0.23 38 1014.5
20260509231904 12 27 8.0 11.3 0.00 0.23 0.23 38 1014.1
20260509231400 12 16 9.7 12.9 0.00 0.23 0.23 39 1014.0
20260509230858 12 16 9.7 12.9 0.00 0.23 0.23 39 1014.2
20260509230355 12 16 9.7 12.9 0.00 0.23 0.23 39 1014.3
20260509225851 12 16 9.7 12.9 0.00 0.23 0.23 39 1014.3
20260509225348 12 307 9.7 12.9 0.00 0.23 0.23 38 1014.1
20260509224843 12 307 9.7 12.9 0.00 0.23 0.23 38 1014.1
20260509224339 12 343 4.8 6.4 0.00 0.23 0.23 42 1014.0
20260509223836 12 343 4.8 6.4 0.00 0.23 0.23 42 1014.0
20260509223333 12 343 4.8 6.4 0.00 0.23 0.23 42 1014.0
20260509222830 12 323 9.7 16.1 0.00 0.23 0.23 40 1014.1
20260509222325 12 57 9.7 14.5 0.00 0.23 0.23 41 1013.9
20260509221821 12 2 8.0 12.9 0.00 0.23 0.23 40 1013.8
20260509221319 13 304 4.8 12.9 0.00 0.23 0.23 41 1013.7
20260509220814 13 258 4.8 20.9 0.00 0.23 0.23 41 1013.8
20260509220310 13 346 6.4 14.5 0.00 0.23 0.23 40 1013.7
20260509215806 13 31 6.4 16.1 0.00 0.23 0.23 40 1014.1
20260509215306 13 356 11.3 17.7 0.00 0.23 0.23 38 1013.8
20260509214800 12 301 17.7 24.1 0.00 0.23 0.23 39 1013.6
20260509214257 13 342 11.3 16.1 0.00 0.23 0.23 40 1013.8
20260509213754 13 268 8.0 16.1 0.00 0.23 0.23 42 1013.9
20260509213249 13 282 12.9 17.7 0.00 0.23 0.23 39 1013.7
20260509212747 12 311 12.9 17.7 0.00 0.23 0.23 39 1013.7
20260509212244 12 324 22.5 30.6 0.00 0.23 0.23 37 1013.7
20260509211745 12 351 8.0 24.1 0.00 0.23 0.23 40 1013.9
20260509211241 13 274 14.5 25.7 0.00 0.23 0.23 39 1013.6
20260509210738 12 269 9.7 17.7 0.00 0.23 0.23 40 1013.7
20260509210236 12 343 14.5 25.7 0.00 0.23 0.23 39 1013.8
20260509205735 12 289 8.0 20.9 0.00 0.23 0.23 41 1013.7
20260509205230 13 250 11.3 22.5 0.00 0.23 0.23 40 1013.8
20260509204726 13 262 12.9 20.9 0.00 0.23 0.23 39 1013.8
20260509204223 12 351 9.7 22.5 0.00 0.23 0.23 41 1013.7
20260509203719 13 279 14.5 27.4 0.00 0.23 0.23 39 1013.9
20260509203218 13 301 9.7 20.9 0.00 0.23 0.23 45 1013.6
20260509202713 12 57 6.4 14.5 0.00 0.23 0.23 42 1013.6
20260509202208 12 315 14.5 20.9 0.00 0.23 0.23 42 1013.6
20260509201703 12 318 11.3 24.1 0.00 0.23 0.23 42 1013.8
20260509201201 12 308 9.7 17.7 0.00 0.23 0.23 42 1013.7
20260509200657 12 315 12.9 25.7 0.00 0.23 0.23 41 1013.7
20260509200152 11 32 9.7 27.4 0.00 0.23 0.23 45 1013.8
20260509195647 11 346 11.3 22.5 0.00 0.23 0.23 44 1013.6
20260509195143 11 43 9.7 17.7 0.00 0.23 0.23 46 1013.6
20260509194637 11 14 8.0 20.9 0.00 0.23 0.23 43 1013.6
20260509194135 11 271 9.7 16.1 0.00 0.23 0.23 45 1013.5
20260509193630 12 322 9.7 16.1 0.00 0.23 0.23 45 1013.6
20260509193126 12 342 11.3 17.7 0.00 0.23 0.23 45 1013.5
20260509192623 11 23 8.0 25.7 0.00 0.23 0.23 51 1013.3
20260509192118 11 320 12.9 22.5 0.00 0.23 0.23 47 1013.3
20260509191612 11 339 9.7 22.5 0.00 0.23 0.23 46 1013.2
20260509191108 11 0 14.5 20.9 0.00 0.23 0.23 47 1013.4
20260509190605 11 3 6.4 24.1 0.00 0.23 0.23 46 1013.3
20260509185600 11 329 17.7 27.4 0.00 0.23 0.23 46 1013.3
20260509185056 11 303 6.4 17.7 0.00 0.23 0.23 47 1013.4
20260509184555 11 359 8.0 17.7 0.00 0.23 0.23 49 1013.2
20260509184051 11 283 9.7 14.5 0.00 0.23 0.23 49 1013.2
20260509183546 11 320 6.4 9.7 0.00 0.23 0.23 49 1013.4
20260509183042 10 320 8.0 12.9 0.00 0.23 0.23 50 1013.2
20260509182539 11 338 6.4 22.5 0.00 0.23 0.23 51 1013.3
20260509182036 10 320 11.3 16.1 0.00 0.23 0.23 49 1013.1
20260509181534 11 17 6.4 16.1 0.00 0.23 0.23 49 1013.2
20260509181031 11 22 9.7 16.1 0.00 0.23 0.23 50 1012.9
20260509180527 10 299 12.9 22.5 0.00 0.23 0.23 50 1013.1
20260509180025 10 242 8.0 14.5 0.00 0.23 0.23 54 1013.0
20260509175520 10 324 8.0 11.3 0.00 0.23 0.23 50 1013.0
20260509175017 10 223 8.0 16.1 0.00 0.23 0.23 52 1013.2
20260509174514 10 343 14.5 22.5 0.00 0.23 0.23 52 1013.0
20260509174009 10 265 6.4 24.1 0.00 0.23 0.23 53 1012.9
20260509173503 10 37 17.7 22.5 0.00 0.23 0.23 51 1012.9
20260509173000 10 353 9.7 12.9 0.00 0.23 0.23 54 1012.8
20260509172457 10 308 6.4 12.9 0.00 0.23 0.23 56 1012.8
20260509171952 10 245 4.8 6.4 0.00 0.23 0.23 53 1012.8
20260509171449 10 19 9.7 24.1 0.00 0.23 0.23 50 1012.9
20260509170945 10 286 9.7 11.3 0.00 0.23 0.23 55 1012.7
20260509170441 10 358 8.0 12.9 0.00 0.23 0.23 52 1012.7
20260509165936 10 326 6.4 6.4 0.00 0.23 0.23 55 1012.7
20260509165431 10 318 9.7 11.3 0.00 0.23 0.23 52 1012.5
20260509164926 9 28 11.3 22.5 0.00 0.23 0.23 53 1012.5
20260509164423 10 54 9.7 14.5 0.00 0.23 0.23 52 1012.4
20260509163919 9 351 11.3 20.9 0.00 0.23 0.23 54 1012.1
20260509163416 9 356 12.9 22.5 0.00 0.23 0.23 52 1012.2
20260509162915 10 298 11.3 17.7 0.00 0.23 0.23 54 1012.0
20260509162414 10 343 6.4 14.5 0.00 0.23 0.23 56 1012.0
20260509161910 9 10 8.0 11.3 0.00 0.23 0.23 52 1012.1
20260509161406 9 326 6.4 14.5 0.00 0.23 0.23 53 1011.9
20260509160902 9 342 6.4 25.7 0.00 0.23 0.23 52 1012.0
20260509160357 8 307 12.9 17.7 0.00 0.23 0.23 53 1012.1
20260509155853 9 268 9.7 16.1 0.00 0.23 0.23 55 1012.0
20260509155350 9 9 8.0 16.1 0.00 0.23 0.23 55 1011.7
20260509154846 9 6 12.9 16.1 0.00 0.23 0.23 55 1011.6
20260509154343 9 64 8.0 20.9 0.00 0.23 0.23 54 1011.6
20260509153839 9 1 8.0 16.1 0.00 0.23 0.23 57 1011.6
20260509153337 9 53 8.0 12.9 0.00 0.23 0.23 56 1011.5
20260509152833 8 34 6.4 17.7 0.00 0.23 0.23 57 1011.4
20260509152329 8 331 9.7 20.9 0.00 0.23 0.23 55 1011.4
20260509151827 8 303 14.5 20.9 0.00 0.23 0.23 56 1011.3
20260509151323 9 344 14.5 16.1 0.00 0.23 0.23 55 1011.3
20260509150822 8 346 4.8 22.5 0.00 0.23 0.23 57 1011.0
20260509150319 8 287 6.4 12.9 0.00 0.23 0.23 59 1011.1
20260509145816 9 319 8.0 17.7 0.00 0.23 0.23 59 1010.8
20260509145316 8 39 8.0 22.5 0.00 0.23 0.23 60 1011.1
20260509144812 8 122 11.3 16.1 0.00 0.23 0.23 59 1011.0
20260509144309 8 19 17.7 24.1 0.00 0.23 0.23 57 1010.9
20260509143806 8 344 14.5 25.7 0.00 0.23 0.23 58 1010.7
20260509143258 8 295 11.3 16.1 0.00 0.23 0.23 59 1010.7
20260509142753 8 10 6.4 16.1 0.00 0.23 0.23 62 1010.7
20260509142250 8 316 9.7 17.7 0.00 0.23 0.23 61 1010.6
20260509141745 8 323 9.7 22.5 0.00 0.23 0.23 60 1010.5
20260509141243 8 46 6.4 16.1 0.00 0.23 0.23 64 1010.7
20260509140739 8 3 9.7 17.7 0.00 0.23 0.23 62 1010.5
20260509140237 8 18 9.7 16.1 0.00 0.23 0.23 64 1010.3
20260509135734 8 36 8.0 20.9 0.00 0.23 0.23 64 1010.3
20260509135232 8 315 6.4 20.9 0.00 0.23 0.23 64 1010.4
20260509134729 8 338 11.3 14.5 0.00 0.23 0.23 65 1010.1
20260509134226 8 3 1.6 14.5 0.00 0.23 0.23 69 1010.1
20260509133723 8 35 6.4 12.9 0.00 0.23 0.23 70 1010.0
20260509133220 7 16 9.7 14.5 0.00 0.23 0.23 69 1010.0
20260509132719 7 357 9.7 16.1 0.00 0.23 0.23 72 1009.9
20260509132217 7 346 8.0 12.9 0.00 0.23 0.23 74 1009.9
20260509131713 7 29 12.9 17.7 0.00 0.23 0.23 75 1009.6
20260509131210 7 352 6.4 20.9 0.00 0.23 0.23 77 1009.5
20260509130705 7 50 8.0 17.7 0.00 0.23 0.23 79 1009.6
20260509130202 7 17 8.0 14.5 0.00 0.23 0.23 80 1009.6
20260509125658 7 42 9.7 24.1 0.00 0.23 0.23 80 1009.3
20260509125155 7 353 8.0 11.3 0.00 0.23 0.23 83 1009.2
20260509124652 7 317 6.4 12.9 0.00 0.23 0.23 83 1009.0
20260509124148 7 347 4.8 12.9 0.00 0.23 0.23 84 1009.0
20260509123647 7 347 6.4 11.3 0.00 0.23 0.23 85 1008.9
20260509123143 7 352 8.0 12.9 0.00 0.23 0.23 86 1009.0
20260509122639 7 109 3.2 6.4 0.00 0.23 0.23 86 1008.8
20260509122136 7 309 6.4 16.1 0.00 0.23 0.23 86 1008.9
20260509121632 6 336 6.4 9.7 0.00 0.23 0.23 88 1008.6
20260509121131 6 239 6.4 14.5 0.00 0.23 0.23 90 1008.4
20260509120628 6 321 6.4 11.3 0.00 0.23 0.23 92 1008.5
20260509120126 6 302 4.8 11.3 0.00 0.23 0.23 93 1008.5
20260509115623 6 294 6.4 9.7 0.00 0.23 0.23 94 1008.3
20260509115121 6 8 9.7 11.3 0.00 0.23 0.23 95 1008.1
20260509114619 6 24 4.8 4.8 0.00 0.23 0.23 96 1008.1
20260509114118 -17 0.0 0.0 0.00 0.00 0.00 1008.0
20260509113615 -17 0.0 0.0 0.00 0.00 0.00 1008.1
20260509113113 -17 0.0 0.0 0.00 0.00 0.00 1007.8
20260509112609 -17 0.0 0.0 0.00 0.00 0.00 1007.7
20260509112106 -17 0.0 0.0 0.00 0.00 0.00 1007.6
20260509111603 -17 0.0 0.0 0.00 0.00 0.00 1007.6
20260509111100 -17 0.0 0.0 0.00 0.00 0.00 1007.4
20260509110557 6 339 6.4 9.7 0.00 0.23 0.23 98 1007.2
20260509110054 6 339 6.4 9.7 0.00 0.23 0.23 98 1007.1
20260509105552 6 339 6.4 9.7 0.00 0.23 0.23 98 1007.0
20260509105050 6 339 6.4 9.7 0.00 0.23 0.23 98 1007.0
20260509104546 6 339 6.4 9.7 0.00 0.23 0.23 98 1007.0
20260509104043 6 339 6.4 9.7 0.00 0.23 0.23 98 1006.8
20260509103541 6 339 6.4 9.7 0.00 0.23 0.23 98 1006.8
20260509103039 6 339 6.4 9.7 0.00 0.23 0.23 98 1006.7
20260509102536 6 339 6.4 9.7 0.00 0.23 0.23 98 1006.7
20260509102033 6 339 6.4 9.7 0.00 0.23 0.23 98 1006.7
20260509101529 6 339 6.4 9.7 0.00 0.23 0.23 98 1006.8
20260509101026 6 339 6.4 9.7 0.00 0.23 0.23 98 1006.4
20260509100523 6 344 4.8 6.4 0.00 0.23 0.23 98 1006.4
20260509100021 7 354 8.0 9.7 0.00 0.23 0.23 96 1006.7
20260509095517 7 354 8.0 9.7 0.00 0.23 0.23 96 1006.5
20260509095015 7 354 8.0 9.7 0.00 0.23 0.23 96 1006.3
20260509094511 7 354 8.0 9.7 0.00 0.23 0.23 96 1006.3
20260509094008 7 354 8.0 9.7 0.00 0.23 0.23 96 1006.0
20260509093506 7 354 8.0 9.7 0.00 0.23 0.23 96 1006.0
20260509093004 7 351 11.3 16.1 0.00 0.23 0.23 96 1005.9
20260509092501 7 38 9.7 12.9 0.00 0.23 0.23 97 1006.0
20260509092000 7 337 9.7 12.9 0.00 0.23 0.23 97 1005.7
20260509091456 7 334 6.4 12.9 0.00 0.23 0.23 98 1005.9
20260509090953 8 351 4.8 6.4 0.00 0.23 0.23 99 1005.6
20260509090451 8 271 3.2 11.3 0.00 0.23 0.23 99 1005.4
20260509085948 8 304 3.2 4.8 0.00 0.23 0.23 99 1005.3
20260509085445 8 280 4.8 6.4 0.00 0.23 0.23 99 1005.2
20260509084941 8 267 6.4 6.4 0.00 0.23 0.23 99 1005.0
20260509084438 8 264 3.2 3.2 0.00 0.23 0.23 99 1004.7
20260509083936 8 261 3.2 3.2 0.00 0.23 0.23 99 1004.9
20260509083433 8 261 3.2 3.2 0.00 0.23 0.23 99 1004.9
20260509082929 8 261 3.2 3.2 0.00 0.23 0.23 99 1004.9
20260509082427 8 259 3.2 3.2 0.00 0.23 0.23 99 1004.6
20260509081923 8 265 1.6 1.6 0.00 0.23 0.23 99 1004.6
20260509081421 8 247 0.0 1.6 0.00 0.23 0.23 99 1004.5
20260509080918 8 247 0.0 1.6 0.00 0.23 0.23 99 1004.4
20260509080416 8 257 0.0 1.6 0.00 0.23 0.23 99 1004.6
20260509075914 8 273 1.6 1.6 0.00 0.23 0.23 99 1004.4
20260509075411 8 268 0.0 1.6 0.00 0.23 0.23 99 1004.3
20260509074908 8 254 0.0 0.0 0.00 0.23 0.23 99 1004.3
20260509074406 8 221 0.0 0.0 0.00 0.23 0.23 99 1004.3
20260509073902 8 249 0.0 0.0 0.00 0.23 0.23 99 1004.2
20260509073358 8 249 0.0 1.6 0.00 0.23 0.23 99 1004.4
20260509072855 8 191 0.0 1.6 0.00 0.23 0.23 99 1004.5
20260509072351 8 169 0.0 1.6 0.00 0.23 0.23 99 1004.7
20260509071848 8 322 1.6 1.6 0.18 0.23 0.23 99 1005.1
20260509071345 8 131 1.6 1.6 0.97 0.23 0.23 98 1004.4
20260509070843 8 251 1.6 1.6 0.79 0.20 0.20 98 1004.5
20260509070339 8 25 6.4 9.7 0.00 0.08 0.08 96 1005.3
20260509065835 8 25 6.4 9.7 0.00 0.08 0.08 96 1005.3
20260509065332 8 25 6.4 9.7 0.00 0.08 0.08 96 1005.1
20260509064827 8 25 6.4 9.7 0.13 0.08 0.08 96 1005.3
20260509064325 8 25 6.4 9.7 0.13 0.08 0.08 96 1005.4
20260509063823 8 30 6.4 6.4 0.18 0.05 0.05 96 1005.7
20260509063319 8 31 8.0 12.9 0.30 0.05 0.05 95 1005.6
20260509062816 8 29 14.5 17.7 0.13 0.03 0.03 94 1005.5
20260509062313 10 4 6.4 9.7 0.00 0.00 0.00 88 1005.5